Location: Ethel Rock
(53.4667°N, 4.5667°W)
Time: 01:02:53
(UTC+00:00)

Cosmos 1833 Rocket - Pass Details

Date: 24 October 2020
Orbit: 832 x 840 km, 71.0° (Epoch: 26 November)

Event Time Altitude Azimuth Distance (km) Brightness Sun altitude
Rises 06:19:47 0° 223° (SW) 3,384 5.5 -7.0°
Reaches altitude 10° 06:22:15 10° 227° (SW) 2,454 4.8 -6.7°
Maximum altitude 06:27:49 60° 308° (NW) 961 2.8 -5.8°
Drops below altitude 10° 06:33:26 10° 28° (NNE) 2,470 5.3 -5.0°
Sets 06:35:56 0° 32° (NNE) 3,408 6.1 -4.7°
